sat.trackr.live / text

‹ back to catalog

STARLINK-36881

NORAD 67962 · 2026-038B

PAYLOAD ACTIVE UNKNOWN

§ Identity

Operator
Country
US
Launch date
2026-02-25
Launch site
AFWTR
Launch vehicle
Mass (kg)
RCS (m²)

Purposes: comms

External: N2YO · Heavens-Above · Gunter

§ Orbital elements

Epoch: 2026-09-19T14:44:10.323168Z

Period
93.91 min
Inclination
97.2851°
Eccentricity
0.0001300
Mean motion
15.33444328 rev/d
Perigee alt
464.7 km
Apogee alt
466.4 km
Semi-major
6,843.7 km
B*
4.2274e-4
RAAN
270.9052°
Arg perigee
95.9374°
Mean anomaly
264.2017°
Rev number
3,295

§ Raw data

STARLINK-368811 67962U 26038B   26262.61400837  .00013597  00000+0  42274-3 0  99922 67962  97.2851 270.9052 0001300  95.9374 264.2017 15.33444328 32958

JSON: /api/v1/satellites/67962 · /tle

For live sub-satellite position, see the globe view (requires WebGL).

§ Visibility from observer

Set your observer location to see the next 7 days of passes ≥ 10°. The values pass through the URL so the page stays shareable.

No JS? Fill the form by hand. The geolocation button needs JavaScript.